CMP319 SMJP-MPTO

Flight info

Callsign CMP319
Flight time N/A
Altitude 38000
Route GEBON UG443 TIM UP549 ISLAG UP650 ESEDA MEVID1
Aircraft B737/M-SDE3FGHIRWY/S

Departure

Time 2026-04-25 15:02
Airport Johan Adolf Pengel International Airport (SMJP)

Arrival

Time N/A
Airport Tocumen International Airport (MPTO)
Time Latitude Longitude Altitude Speed Heading
2026-04-25 14:34 5.45526 -55.19964 59 ft 0 kts
2026-04-25 14:55 5.45517 -55.19964 59 ft 4 kts
2026-04-25 14:55 5.45490 -55.19966 52 ft 4 kts
2026-04-25 14:55 5.45474 -55.19967 52 ft 4 kts 359°
2026-04-25 14:55 5.45449 -55.19953 55 ft 4 kts 286°
2026-04-25 14:56 5.45446 -55.19936 56 ft 4 kts 272°
2026-04-25 14:56 5.45446 -55.19909 60 ft 4 kts 269°
2026-04-25 14:56 5.45446 -55.19903 60 ft 1 kts 269°
2026-04-25 14:59 5.45446 -55.19915 56 ft 4 kts 269°
2026-04-25 14:59 5.45445 -55.19967 59 ft 10 kts 268°
2026-04-25 14:59 5.45445 -55.20056 59 ft 15 kts 270°
2026-04-25 15:00 5.45444 -55.20172 57 ft 18 kts 271°
2026-04-25 15:00 5.45442 -55.20304 58 ft 18 kts 262°
2026-04-25 15:00 5.45365 -55.20352 56 ft 11 kts 179°
2026-04-25 15:00 5.45293 -55.20337 49 ft 10 kts 149°
2026-04-25 15:01 5.45275 -55.20287 56 ft 7 kts 89°
2026-04-25 15:01 5.45276 -55.20217 56 ft 21 kts 90°
2026-04-25 15:01 5.45281 -55.19842 61 ft 88 kts 90°
2026-04-25 15:01 5.45286 -55.19014 57 ft 146 kts 89°
2026-04-25 15:02 5.45282 -55.17877 390 ft 165 kts 89°
2026-04-25 15:02 5.45269 -55.16730 1002 ft 169 kts 90°
2026-04-25 15:02 5.45274 -55.15581 1794 ft 165 kts 90°
2026-04-25 15:02 5.45291 -55.14418 2505 ft 170 kts 89°
2026-04-25 15:03 5.45492 -55.13276 3203 ft 174 kts 58°
2026-04-25 15:03 5.46519 -55.12522 3640 ft 206 kts 19°
2026-04-25 15:03 5.48047 -55.12515 3856 ft 238 kts 347°
2026-04-25 15:03 5.49538 -55.13381 4154 ft 266 kts 316°
2026-04-25 15:04 5.50460 -55.15076 4632 ft 285 kts 289°
2026-04-25 15:04 5.51016 -55.17004 5489 ft 289 kts 285°
2026-04-25 15:04 5.51537 -55.18971 6386 ft 293 kts 285°
2026-04-25 15:04 5.52068 -55.20954 7242 ft 296 kts 286°
2026-04-25 15:05 5.52622 -55.22956 8077 ft 300 kts 286°
2026-04-25 15:05 5.53201 -55.24984 8902 ft 305 kts 287°
2026-04-25 15:05 5.53804 -55.27043 9738 ft 309 kts 287°
2026-04-25 15:06 5.55096 -55.31347 10606 ft 345 kts 287°
2026-04-25 15:06 5.55820 -55.33725 10871 ft 365 kts 287°
2026-04-25 15:06 5.56567 -55.36164 11427 ft 374 kts 287°
2026-04-25 15:06 5.57338 -55.38672 12135 ft 378 kts 287°
2026-04-25 15:07 5.58125 -55.41230 12913 ft 381 kts 287°
2026-04-25 15:07 5.58911 -55.43782 13632 ft 385 kts 287°
2026-04-25 15:07 5.59697 -55.46330 14255 ft 389 kts 287°
2026-04-25 15:07 5.60501 -55.48935 14900 ft 392 kts 287°
2026-04-25 15:08 5.61313 -55.51566 15545 ft 396 kts 287°
2026-04-25 15:08 5.62132 -55.54217 16185 ft 400 kts 287°
2026-04-25 15:08 5.62958 -55.56897 16808 ft 404 kts 287°
2026-04-25 15:08 5.63794 -55.59607 17430 ft 407 kts 287°
2026-04-25 15:09 5.64637 -55.62338 18052 ft 411 kts 287°
2026-04-25 15:09 5.65487 -55.65096 18601 ft 414 kts 287°
2026-04-25 15:09 5.67202 -55.70657 19690 ft 419 kts 287°
2026-04-25 15:10 5.68066 -55.73460 20219 ft 421 kts 287°
2026-04-25 15:10 5.68938 -55.76287 20725 ft 424 kts 287°
2026-04-25 15:10 5.70685 -55.81957 21755 ft 428 kts 287°
2026-04-25 15:11 5.71567 -55.84822 22280 ft 430 kts 287°
2026-04-25 15:11 5.72454 -55.87702 22760 ft 433 kts 287°
2026-04-25 15:11 5.73346 -55.90598 23175 ft 436 kts 287°
2026-04-25 15:12 5.75067 -55.96572 23444 ft 455 kts 285°
2026-04-25 15:12 5.75933 -55.99666 23503 ft 464 kts 286°
2026-04-25 15:12 5.76837 -56.02799 23565 ft 472 kts 286°
2026-04-25 15:12 5.77144 -56.03836 23600 ft 473 kts 287°
2026-04-25 15:13 5.78743 -56.09120 23907 ft 477 kts 287°
2026-04-25 15:13 5.80724 -56.15505 24355 ft 480 kts 287°
2026-04-25 15:13 5.81722 -56.18706 24547 ft 481 kts 287°
2026-04-25 15:14 5.82724 -56.21920 24765 ft 482 kts 287°
2026-04-25 15:14 5.83724 -56.25135 24985 ft 483 kts 287°
2026-04-25 15:14 5.84727 -56.28363 25189 ft 484 kts 287°
2026-04-25 15:14 5.85733 -56.31604 25397 ft 485 kts 287°
2026-04-25 15:15 5.86738 -56.34841 25607 ft 486 kts 287°
2026-04-25 15:15 5.87731 -56.38043 25783 ft 488 kts 287°
2026-04-25 15:15 5.88741 -56.41300 25944 ft 489 kts 287°
2026-04-25 15:15 5.89754 -56.44571 26085 ft 491 kts 287°
2026-04-25 15:16 5.90771 -56.47853 26297 ft 491 kts 287°
2026-04-25 15:16 5.91788 -56.51135 26461 ft 493 kts 287°
2026-04-25 15:16 5.93827 -56.57716 26809 ft 494 kts 287°
2026-04-25 15:17 5.95873 -56.64325 27161 ft 496 kts 287°
2026-04-25 15:17 5.96887 -56.67602 27409 ft 495 kts 287°
2026-04-25 15:17 5.97910 -56.70907 27648 ft 495 kts 287°
2026-04-25 15:18 5.98930 -56.74205 27963 ft 493 kts 287°
2026-04-25 15:18 6.00959 -56.80768 28555 ft 491 kts 287°
2026-04-25 15:18 6.01972 -56.84046 28797 ft 492 kts 287°
2026-04-25 15:19 6.02990 -56.87342 29046 ft 492 kts 287°
2026-04-25 15:19 6.03334 -56.88456 29137 ft 492 kts 287°
2026-04-25 15:19 6.05015 -56.93895 29620 ft 492 kts 287°
2026-04-25 15:19 6.06026 -56.97167 30004 ft 490 kts 287°
2026-04-25 15:20 6.07037 -57.00436 30300 ft 489 kts 287°
2026-04-25 15:20 6.08092 -57.03687 30593 ft 488 kts 288°
2026-04-25 15:20 6.09188 -57.06916 30903 ft 487 kts 289°
2026-04-25 15:20 6.10302 -57.10138 31188 ft 488 kts 289°
2026-04-25 15:21 6.11417 -57.13357 31505 ft 487 kts 289°
2026-04-25 15:21 6.12526 -57.16568 31811 ft 487 kts 289°
2026-04-25 15:21 6.13628 -57.19781 32128 ft 486 kts 289°
2026-04-25 15:21 6.14724 -57.22991 32509 ft 485 kts 289°
2026-04-25 15:22 6.15812 -57.26189 32884 ft 483 kts 289°
2026-04-25 15:22 6.16900 -57.29392 33231 ft 483 kts 289°
2026-04-25 15:22 6.17983 -57.32583 33578 ft 482 kts 288°
2026-04-25 15:22 6.19066 -57.35777 33937 ft 482 kts 288°
2026-04-25 15:23 6.20133 -57.38920 34242 ft 481 kts 288°
2026-04-25 15:23 6.21214 -57.42107 34477 ft 482 kts 288°
2026-04-25 15:23 6.22299 -57.45304 34691 ft 483 kts 288°
2026-04-25 15:23 6.23381 -57.48494 34964 ft 482 kts 288°
2026-04-25 15:24 6.24465 -57.51689 35248 ft 482 kts 288°
2026-04-25 15:24 6.25544 -57.54872 35503 ft 481 kts 288°
2026-04-25 15:24 6.26625 -57.58060 35722 ft 482 kts 288°
2026-04-25 15:24 6.27341 -57.60173 35875 ft 482 kts 288°
2026-04-25 15:25 6.28787 -57.64440 36215 ft 481 kts 288°
2026-04-25 15:25 6.29866 -57.67624 36433 ft 481 kts 288°
2026-04-25 15:25 6.30933 -57.70775 36672 ft 481 kts 288°
2026-04-25 15:25 6.32012 -57.73958 36903 ft 480 kts 288°
2026-04-25 15:26 6.33089 -57.77141 37131 ft 480 kts 288°
2026-04-25 15:26 6.34164 -57.80315 37375 ft 480 kts 288°
2026-04-25 15:26 6.35239 -57.83492 37626 ft 479 kts 288°
2026-04-25 15:26 6.36312 -57.86665 37849 ft 479 kts 288°
2026-04-25 15:27 6.37387 -57.89840 37975 ft 481 kts 288°
2026-04-25 15:27 6.38468 -57.93039 37947 ft 483 kts 288°
2026-04-25 15:28 6.41672 -58.02515 37940 ft 474 kts 288°
2026-04-25 15:28 6.43799 -58.08810 37958 ft 471 kts 288°
2026-04-25 15:29 6.45890 -58.15003 37965 ft 470 kts 288°
2026-04-25 15:29 6.47990 -58.21225 37974 ft 469 kts 289°
2026-04-25 15:30 6.49791 -58.27513 37957 ft 468 kts 277°
2026-04-25 15:30 6.50333 -58.34038 37958 ft 470 kts 273°
2026-04-25 15:31 6.50748 -58.40557 37952 ft 470 kts 274°
2026-04-25 15:31 6.51215 -58.47122 37959 ft 469 kts 274°
2026-04-25 15:32 6.51714 -58.53674 37952 ft 469 kts 275°
2026-04-25 15:32 6.52215 -58.60206 37962 ft 468 kts 275°
2026-04-25 15:33 6.52963 -58.70035 37984 ft 477 kts 275°
2026-04-25 15:33 6.53472 -58.76731 37962 ft 481 kts 275°
2026-04-25 15:34 6.54002 -58.83448 37954 ft 481 kts 275°
2026-04-25 15:34 6.54356 -58.87899 37953 ft 481 kts 275°
2026-04-25 15:35 6.55325 -59.00184 37958 ft 480 kts 275°
2026-04-25 15:36 6.56115 -59.10228 37956 ft 480 kts 275°
2026-04-25 15:36 6.56640 -59.16918 37961 ft 480 kts 275°
2026-04-25 15:37 6.57165 -59.23620 37965 ft 480 kts 275°
2026-04-25 15:37 6.57688 -59.30315 37960 ft 480 kts 275°
2026-04-25 15:38 6.58211 -59.37010 37961 ft 480 kts 274°
2026-04-25 15:38 6.58729 -59.43663 37967 ft 480 kts 274°
2026-04-25 15:39 6.59250 -59.50352 37973 ft 480 kts 274°
2026-04-25 15:39 6.59775 -59.57050 37968 ft 480 kts 274°
2026-04-25 15:40 6.60128 -59.61527 37962 ft 480 kts 274°
2026-04-25 15:40 6.60828 -59.70423 37972 ft 478 kts 274°
2026-04-25 15:41 6.61351 -59.77092 37955 ft 478 kts 274°
2026-04-25 15:41 6.61868 -59.83712 37963 ft 477 kts 274°
2026-04-25 15:42 6.62389 -59.90377 37959 ft 477 kts 274°
2026-04-25 15:42 6.62907 -59.97024 37979 ft 476 kts 274°
2026-04-25 15:43 6.63336 -60.02533 37957 ft 475 kts 274°
2026-04-25 15:43 6.63850 -60.09154 37963 ft 474 kts 274°
2026-04-25 15:44 6.64363 -60.15765 37968 ft 473 kts 274°
2026-04-25 15:44 6.64875 -60.22372 37970 ft 473 kts 273°
2026-04-25 15:45 6.65373 -60.28957 37977 ft 472 kts 274°
2026-04-25 15:45 6.65778 -60.34421 37963 ft 471 kts 273°
2026-04-25 15:46 6.66344 -60.42062 37979 ft 471 kts 274°
2026-04-25 15:46 6.66831 -60.48630 37972 ft 470 kts 273°
2026-04-25 15:47 6.67318 -60.55202 37982 ft 470 kts 273°
2026-04-25 15:47 6.67801 -60.61729 37984 ft 470 kts 273°
2026-04-25 15:48 6.68286 -60.68290 37977 ft 470 kts 273°
2026-04-25 15:48 6.68771 -60.74867 37997 ft 470 kts 273°
2026-04-25 15:49 6.69254 -60.81432 37970 ft 470 kts 272°
2026-04-25 15:49 6.69736 -60.88001 37984 ft 470 kts 272°
2026-04-25 15:50 6.70214 -60.94514 37965 ft 470 kts 272°
2026-04-25 15:50 6.70693 -61.01071 37970 ft 469 kts 272°
2026-04-25 15:51 6.71263 -61.06496 37972 ft 470 kts 278°
2026-04-25 15:51 6.72716 -61.14031 37967 ft 469 kts 280°
2026-04-25 15:52 6.74023 -61.20457 37961 ft 468 kts 280°
2026-04-25 15:52 6.75278 -61.26883 37973 ft 468 kts 279°
2026-04-25 15:53 6.76505 -61.33322 37966 ft 467 kts 279°
2026-04-25 15:53 6.77720 -61.39737 37965 ft 467 kts 279°
2026-04-25 15:54 6.78928 -61.46116 37963 ft 466 kts 279°
2026-04-25 15:54 6.80144 -61.52531 37978 ft 466 kts 279°
2026-04-25 15:55 6.81359 -61.58944 37964 ft 466 kts 279°
2026-04-25 15:55 6.82564 -61.65309 37974 ft 466 kts 279°
2026-04-25 15:56 6.83776 -61.71715 37974 ft 466 kts 279°
2026-04-25 15:56 6.84986 -61.78117 37974 ft 466 kts 279°
2026-04-25 15:57 6.86196 -61.84521 37969 ft 466 kts 279°
2026-04-25 15:57 6.87405 -61.90928 37969 ft 466 kts 279°
2026-04-25 15:58 6.88155 -61.94040 38379 ft 445 kts 297°
2026-04-25 15:58 6.90157 -61.96269 36448 ft 423 kts 336°
2026-04-25 15:58 6.92414 -61.96257 26132 ft 282 kts 48°
2026-04-25 15:58 6.93543 -61.93265 15551 ft 626 kts 56°
2026-04-25 15:59 6.96812 -61.91412 10480 ft 581 kts 346°
2026-04-25 15:59 6.99171 -61.94422 8774 ft 548 kts 271°
2026-04-25 15:59 6.97805 -61.97189 12475 ft 388 kts 207°
2026-04-25 15:59 6.95453 -61.97518 14558 ft 329 kts 160°
2026-04-25 16:00 6.93655 -61.96172 13407 ft 342 kts 119°
2026-04-25 16:00 6.93303 -61.95424 12618 ft 361 kts 106°
2026-04-25 16:00 6.94085 -61.91217 12010 ft 358 kts 54°
2026-04-25 16:00 6.95748 -61.89759 14040 ft 286 kts 30°
2026-04-25 16:01 6.97531 -61.89176 14905 ft 263 kts 11°
2026-04-25 16:01 6.99449 -61.89130 14138 ft 296 kts 358°
2026-04-25 16:01 7.01665 -61.89491 12688 ft 348 kts 349°
2026-04-25 16:01 7.04048 -61.90189 12425 ft 352 kts 343°
2026-04-25 16:02 7.06165 -61.91012 13502 ft 307 kts 339°
2026-04-25 16:02 7.08013 -61.91860 14313 ft 276 kts 337°
2026-04-25 16:02 7.09740 -61.92717 14028 ft 290 kts 336°
2026-04-25 16:02 7.11661 -61.93688 12937 ft 328 kts 336°
2026-04-25 16:03 7.13785 -61.94737 12371 ft 344 kts 337°
2026-04-25 16:03 7.15888 -61.95724 12928 ft 317 kts 338°
2026-04-25 16:03 7.17807 -61.96564 13735 ft 287 kts 340°
2026-04-25 16:03 7.19640 -61.97302 13749 ft 287 kts 342°
2026-04-25 16:04 7.21598 -61.98016 12960 ft 313 kts 344°
2026-04-25 16:04 7.23737 -61.98694 12321 ft 333 kts 346°
2026-04-25 16:04 7.25950 -61.99283 12509 ft 320 kts 349°
2026-04-25 16:04 7.28039 -61.99719 13143 ft 293 kts 354°
2026-04-25 16:05 7.30018 -61.99955 13330 ft 285 kts 359°
2026-04-25 16:05 7.32044 -62.00012 12859 ft 300 kts
2026-04-25 16:05 7.36390 -61.99588 12256 ft 313 kts 13°
2026-04-25 16:06 7.38453 -61.99149 12687 ft 293 kts 17°
2026-04-25 16:06 7.40370 -61.98583 12938 ft 282 kts 22°
2026-04-25 16:06 7.42218 -61.97869 12677 ft 290 kts 27°
2026-04-25 16:06 7.44088 -61.96957 12216 ft 305 kts 31°
2026-04-25 16:07 7.45923 -61.95853 12089 ft 305 kts 36°
2026-04-25 16:07 7.46489 -61.95464 12149 ft 302 kts 38°
2026-04-25 16:07 7.49088 -61.93339 12637 ft 279 kts 46°
2026-04-25 16:07 7.50457 -61.91953 12550 ft 281 kts 50°
2026-04-25 16:08 7.51756 -61.90429 12207 ft 293 kts 54°
2026-04-25 16:08 7.52999 -61.88771 11992 ft 298 kts 57°
2026-04-25 16:08 7.54140 -61.87059 12117 ft 290 kts 60°
2026-04-25 16:08 7.55160 -61.85353 12359 ft 279 kts 63°
2026-04-25 16:09 7.56068 -61.83630 12380 ft 277 kts 66°
2026-04-25 16:09 7.56860 -61.81830 12130 ft 285 kts 70°
2026-04-25 16:09 7.57533 -61.79944 11892 ft 292 kts 74°
2026-04-25 16:09 7.58092 -61.77982 11911 ft 288 kts 77°
2026-04-25 16:10 7.58512 -61.76040 12095 ft 279 kts 81°
2026-04-25 16:10 7.58790 -61.74126 12164 ft 275 kts 85°
2026-04-25 16:10 7.58936 -61.72191 12013 ft 280 kts 89°
2026-04-25 16:10 7.58944 -61.70207 11815 ft 286 kts 92°
2026-04-25 16:11 7.58804 -61.68202 11780 ft 286 kts 96°
2026-04-25 16:11 7.58520 -61.66243 11901 ft 279 kts 101°
2026-04-25 16:11 7.58102 -61.64347 11988 ft 275 kts 104°
2026-04-25 16:11 7.57561 -61.62490 11916 ft 278 kts 108°
2026-04-25 16:12 7.56888 -61.60648 11764 ft 283 kts 111°
2026-04-25 16:12 7.56088 -61.58817 11653 ft 286 kts 115°
2026-04-25 16:12 7.55167 -61.57052 11688 ft 283 kts 119°
2026-04-25 16:12 7.54834 -61.56473 11724 ft 281 kts 120°
2026-04-25 16:13 7.53092 -61.53743 11815 ft 278 kts 124°
2026-04-25 16:13 7.51919 -61.52180 11814 ft 278 kts 128°
2026-04-25 16:13 7.50654 -61.50715 11807 ft 279 kts 131°
2026-04-25 16:13 7.49289 -61.49343 11793 ft 279 kts 135°
2026-04-25 16:14 7.47870 -61.48119 12257 ft 261 kts 140°
2026-04-25 16:14 7.46376 -61.47008 11822 ft 282 kts 143°
2026-04-25 16:14 7.44564 -61.45864 11486 ft 322 kts 149°
2026-04-25 16:14 7.42718 -61.44945 13594 ft 263 kts 155°
2026-04-25 16:15 7.41131 -61.44393 15517 ft 229 kts 161°
2026-04-25 16:15 7.39529 -61.44047 15924 ft 253 kts 167°
2026-04-25 16:15 7.37557 -61.43805 15022 ft 322 kts 172°
2026-04-25 16:15 7.35097 -61.43695 14466 ft 376 kts 177°
2026-04-25 16:16 7.32528 -61.43809 15833 ft 349 kts 183°
2026-04-25 16:16 7.30325 -61.44174 18271 ft 301 kts 189°
2026-04-25 16:16 7.28330 -61.44738 19193 ft 304 kts 195°
2026-04-25 16:16 7.26208 -61.45541 18518 ft 354 kts 200°
2026-04-25 16:17 7.23767 -61.46665 16951 ft 426 kts 204°
2026-04-25 16:17 7.21043 -61.48153 16419 ft 447 kts 208°
2026-04-25 16:17 7.18526 -61.49744 16975 ft 406 kts 211°
2026-04-25 16:17 7.16312 -61.51317 17337 ft 377 kts 214°
2026-04-25 16:18 7.14263 -61.52921 16743 ft 375 kts 216°
2026-04-25 16:18 7.13572 -61.53487 16322 ft 380 kts 217°
2026-04-25 16:18 7.10078 -61.56499 13862 ft 417 kts 219°
2026-04-25 16:18 7.10034 -61.56538 13835 ft 418 kts 219°
2026-04-25 16:19 7.09500 -61.57021 13539 ft 420 kts 220°
2026-04-25 16:19 7.07373 -61.58998 12878 ft 413 kts 221°
2026-04-25 16:19 7.05365 -61.60945 12914 ft 387 kts 222°
2026-04-25 16:20 7.01813 -61.64670 12389 ft 362 kts 225°
2026-04-25 16:20 7.00134 -61.66566 11335 ft 373 kts 227°
2026-04-25 16:20 6.96717 -61.70691 9522 ft 385 kts 230°
2026-04-25 16:21 6.96267 -61.71269 9410 ft 381 kts 230°
2026-04-25 16:22 6.95909 -61.71735 9338 ft 378 kts 231°
2026-04-25 16:24 6.95458 -61.72331 9267 ft 373 kts 231°
2026-04-25 16:25 6.94868 -61.73125 9209 ft 366 kts 231°
2026-04-25 16:25 6.93408 -61.75162 8976 ft 352 kts 233°
2026-04-25 16:26 6.92086 -61.77121 8728 ft 340 kts 234°
2026-04-25 16:26 6.90869 -61.79034 9091 ft 309 kts 236°
2026-04-25 16:26 6.89786 -61.80816 9138 ft 292 kts 237°
2026-04-25 16:26 6.88731 -61.82600 8382 ft 304 kts 237°
2026-04-25 16:27 6.88371 -61.83214 8028 ft 312 kts 237°